Find Starlink 38138

NORAD ID: 100384 Int'l Des: 2026-190 Owner: SPXS Country: US Constellation: starlink operational

Aktuelle Ansicht

3D-Globus wird geladen...

About Starlink 38138

Starlink 38138 (NORAD 100384) is a starlink constellation satellite launched Aug 19, 2026 by SPXS of US. with a mass of 575.00 kg.

Nächste Überflüge

Passes for default location (London). Set your location on the main map for personalized predictions.

Höhenverlauf

Loading altitude history...

Zweizeiliger Elementsatz

1 A0384U 26190P 26261.65957919 -.00519271 00000-0 -40308-2 0 9995
2 A0384 97.2841 115.8902 0001126 65.0059 295.1322 15.73182252 6050
Epoch: 18. Sept. 2026 • Age: 52 hours

Aktueller Status

Höhe 378.4 km
Apogäum / Perigäum N/A
Geschwindigkeit 7.68 km/s
Subsatellitenpunkt -56.47°S, 163.45°W
Startdatum 19. Aug. 2026
Alter 32 days
Typ internet

Technische Details

Klassifizierung Payload
Masse 575.00 kg
Trockenmasse 530.00 kg
Länge 0.30 m
Spannweite 29.00 m
Form ? Box
Hersteller SPXS
Bus-Typ Starlink V2MO
Phasenstatus In Orbit
Besitzer/Staat SPXS/US

Most Searched